Regional Weather Roundup
Issued by NWS Wakefield, VA

Home | Current Version | Previous Version | Graphics & Text | Print | Product List | Glossary On
Versions: 1 2 3 4 5 6 7 8 9 10 11 12 13 14 15 16 17 18 19 20 21 22 23 24 25 26 27 28 29 30 31 32 33 34 35 36 37 38 39 40 41 42 43 44 45 46 47 48 49 50
000
ASUS41 KAKQ 220415
RWRAKQ

REGIONAL WEATHER ROUNDUP
NATIONAL WEATHER SERVICE WAKEFIELD VA
1200 AM EDT FRI MAY 22 2015

Note: "fair" indicates few or no clouds below 12,000 feet with no
significant weather and/or obstructions to visibility. * = Denotes
station may not report precipitation (e.g., rain,snow,etc.),
thunder or fog.

VAZ042-051-052>054-056-220500-
NORTHERN VIRGINIA

CITY           SKY/WX    TMP DP  RH WIND       PRES   REMARKS
WASH NATIONAL  PTCLDY    54  48  80 NW6       29.96S
DULLES         PTCLDY    51  49  92 NW8       29.97S
FORT BELVOIR   FOG       48  46  93 CALM      29.96R VSB 3/4
QUANTICO       PTCLDY    53  49  86 N5        29.97S
FREDERICKSBRG* PTCLDY    54  54 100 CALM      29.96S
STAFFORD*      PTCLDY    50  49  97 W5        30.00F FOG
WARRENTON      CLEAR     52  52  99 W5        29.97S
CULPEPER*      PTCLDY    52  50  94 NW3       29.99S
MANASSAS*      NOT AVBL
LEESBURG*      MOCLDY    52  52 100 NW8       29.98S
WINCHESTER     PTCLDY    52  45  76 NW14G22   29.99S
FRONT ROYAL*   CLOUDY    52  48  87 NW10G20   30.00R
LURAY*         CLOUDY    55  48  76 NW14      30.01R
$$

VAZ048-049-060>072-079>083-220500-
CENTRAL AND SOUTH CENTRAL VIRGINIA

CITY           SKY/WX    TMP DP  RH WIND       PRES   REMARKS
RICHMOND       CLOUDY    55  50  83 NW10      29.97R
CHESTERFIELD*  NOT AVBL
PETERSBURG*    CLOUDY    56  54  90 NW6       29.98R
HANOVER        CLOUDY    52  51  97 W5        29.99R
TAPPAHANNOCK*  CLOUDY    54  49  84 CALM      29.96S
QUINTON*       CLOUDY    53  51  94 NW7       29.96S
CHARLOTTSVILLE CLOUDY    53  51  93 CALM      29.99R
GORDONSVILLE*  MOCLDY    52  51  96 NW3       29.99R
ORANGE*        CLOUDY    54  52  94 SW3       30.00S
LOUISA*        MOCLDY    54  52  94 CALM      29.97R FOG
BUMPASS*       MOCLDY    51  50  97 CALM      29.98R
FARMVILLE*     CLOUDY    56  56 100 CALM      29.98S
CREWE*         CLOUDY    55  53  92 NW5       29.98R
FORT PICKETT*  CLOUDY    55  54  97 NW6       29.98R
CHASE CITY*    CLOUDY    58  58 100 NW3       29.98S
CLARKSVILLE*   FAIR      55  54  94 NW5       29.97S
SOUTH HILL*    CLOUDY    55  53  96 N6        30.03S
LAWRENCEVILLE* CLOUDY    55  54  94 NW3       29.97S
EMPORIA*       CLOUDY    54  54 100 W7        29.98S
$$

VAZ088>098-220500-
SOUTHEAST VIRGINIA

CITY           SKY/WX    TMP DP  RH WIND       PRES   REMARKS
NORFOLK        CLOUDY    58  53  84 NW12      29.93R
VIRGINIA BEACH CLOUDY    60  55  83 NW18      29.91R
NORFOLK NAVAL  CLOUDY    60  53  77 NW15      29.95R
WEST POINT*    CLOUDY    57  52  82 NW5       29.97R
SALUDA*        CLOUDY    55  51  87 N14G20    29.94R
NEWPORT NEWS   CLOUDY    59  53  80 N8        29.94R
LANGLEY AFB    CLOUDY    56  53  89 N8        29.93R
FORT EUSTIS    CLOUDY    56  56 100 VRB5      29.93R
WILLIAMSBURG*  CLOUDY    57  55  94 NW10      29.97R
HR EXEC AP*    CLOUDY    57  52  82 NW6       29.96R
FRANKLIN*      CLOUDY    55  53  92 NW8       29.96R
WAKEFIELD      CLOUDY    56  53  90 N3        29.96S
$$

VAZ020-022-025-037-045-220500-
WEST CENTRAL AND SOUTHWEST VIRGINIA

CITY           SKY/WX    TMP DP  RH WIND       PRES   REMARKS
STAUNTON*      MOCLDY    54  48  80 NW7       30.03R
WAYNESBORO*    CLOUDY    54  48  81 W7        30.01R
HOT SPRINGS VA LGT RAIN  42  42 100 NW13G25   30.02S
LYNCHBURG      MOCLDY    51  51 100 CALM      30.01S
DANVILLE       MOCLDY    54  52  93 SW5       30.01R
SOUTH BOSTON*  MOCLDY    55  54  95 N3        29.99S
MARTINSVILLE   MOCLDY    57  46  68 NW7       30.06S
ROANOKE        PTCLDY    56  44  64 W15       30.05R
BLACKSBURG     CLOUDY    49  43  80 W8        30.10R
DUBLIN*        CLOUDY    51  49  90 NW3       30.10R
MARION*        DRIZZLE   50  46  84 W7        30.13R
HILLSVILLE*    MOCLDY    49  45  87 NW18G25   30.05S
RICHLANDS*     DRIZZLE   46  32  59 NW8       30.13R
WISE*          CLOUDY    45  45 100 N3        30.16R FOG
ABINGDON*      CLOUDY    52  47  82 N10       30.13R
$$

MDZ021>025-VAZ099-100-220500-
SOUTHERN MARYLAND AND THE DELMARVA PENINSULA

CITY           SKY/WX    TMP DP  RH WIND       PRES   REMARKS
PATUXENT RIVER MOCLDY    53  49  86 NW10      29.93S
BAY BRIDGE APT   N/A    N/A N/A N/A NW8       29.94R
LEONARDTOWN    MOCLDY    48  46  93 W3        29.96R
DOVER          CLOUDY    52  52 100 NW7       29.88R
GEORGETOWN     CLOUDY    52  51  97 NW7       29.92R
EASTON         PTCLDY    52  52 100 N3        29.97S
CAMBRIDGE      CLOUDY    54  50  87 N5        29.92F
SALISBURY      CLOUDY    52  51  97 NW12      29.91R
OCEAN CITY     CLOUDY    53  51  93 N10       29.89R
WALLOPS ISLAND CLOUDY    52  52 100 NW8       29.91R
ACCOMACK*      CLOUDY    54  54 100 N6        29.91R
$$

NCZ012>017-030>032-220500-
NORTH CENTRAL AND EASTERN NORTH CAROLINA

CITY           SKY/WX    TMP DP  RH WIND       PRES   REMARKS
ROANOKE RAPIDS CLOUDY    55  54  94 N9        29.96S
RALEIGH        PTCLDY    58  54  86 VRB3      29.97R
ELIZABETH CITY CLOUDY    59  55  87 NW10      29.93R
AHOSKIE*       CLOUDY    56  53  91 N5        29.96S
EDENTON*       CLOUDY    59  56  89 N7        29.94R
CURRITUCK*     CLOUDY    58  55  89 W5        29.93R
KILL DEVIL HLS CLOUDY    58  55  92 N6G16     29.90R
MANTEO         CLOUDY    59  55  89 N16G25    29.92R
CAPE HATTERAS  CLOUDY    62  59  90 N13G23    29.89R
TARBORO*       CLOUDY    59  55  87 N13G18    29.95S
GOLDSBORO      CLOUDY    60  57  88 N8        29.91S
WASHINGTON     CLOUDY   N/A N/A N/A N10       29.92S
GREENVILLE     CLOUDY    59  55  88 N10G18    29.96R
NEW BERN       MOCLDY    61  57  87 N9        29.92R
WILMINGTON     PTCLDY    64  60  87 N6        29.92R
$$

VAZ048-220500-
ELSEWHERE

CITY           SKY/WX    TMP DP  RH WIND       PRES   REMARKS
HARRISBURG PA  CLOUDY    54  47  77 NW13      29.94S
BALTIMORE      PTCLDY    49  47  93 W7        29.94S
ANNAPOLIS      CLEAR     51  48  89 W7        29.93S
ANDREWS AFB    CLEAR     50  49  97 W5        29.94S
PHILADELPHIA   CLOUDY    54  47  77 NW5       29.92S
HENDERSON NC   MOCLDY    56  54  94 NW5       29.98R
GREENSBORO     PTCLDY    59  56  89 N7        30.01R
ROCKY MOUNT    MOCLDY    59  55  87 N13       29.94S
$$

VAZ100-220500-
MARINE

STATION/POSITION TIME  TEMP    WIND        PRES    WAVE   SWELL
                       AIR SEA DIR/SP/G            HT/PER HT/PER
                 (UTC) (F)     (DEG/KT/KT) (MB)    (FT/S) (FT/S)
BRANDYWINE LGT   0300   53 63   20/ 13/ 15 1012.5F
CAPE MAY NJ      0300   51 65   50/  3/  5 1011.9F
LEWES DE         0300   54 63   40/  9/ 10 1012.1S
15NM E FENWICK I 0350   54 58              1010.8S   3/ 5
OCEAN-CITY-INLET 0300   54 60   30/  9/ 12 1011.6R
WACHAPREAGUE VA  0300   54 65   10/  5/  9 1012.0R
THOMAS POINT MD  0400   52 65  320/  9/ 10 1014.4R
GOOSES REEF MD   0400   54 66  330/ 14/ 16 1014.8R   0
BISHOPS HEAD MD  0300   52 62  340/  9/ 11 1012.7R
PINEY POINT MD   0300          350/ 15/ 17   N/A
CAMBRIDGE MD     0300   53 70  330/ 10/ 12 1013.2R
LEWISETTA VA     0300   56 69              1013.5R
RAPPAHANNOCK LGT 0300          350/ 19/ 22 1012.9R
STINGRAY PT      0400   58 70  330/ 14/ 16 1013.1R   2/ 3
YORK RVR RNG VA  0300   57     320/ 21/ 25 1012.5R
YORKTOWN VA      0300   56 70  340/ 16/ 20 1013.2R
JAMESTOWN VA     0400   56 75  350/ 12/ 17 1013.4R
DOMINION TERM VA 0300   58      60/  3/  8 1013.2R
KIPTOPEKE VA     0300      72  360/ 11/ 16   N/A
CHES BAY BRIDGE  0300   60 66  320/ 20/ 24 1012.0R
CAPE HENRY VA    0300   60     340/ 20/ 25 1011.0R
CHESAPEAKE LGHT  0300   58     350/ 21/ 24 1012.2R
WILLOUBY STN VA  0300   58     320/ 14/ 16 1013.6R
CAPE HENRY BUOY  0328      64                N/A     6/ 6
1ST LANDING BUOY 0400      64              1012.7R
CAPE CHARLES BUO 0326      64                N/A     5/ 6   2/ 9
OFFSHORE WE BUOY 0311      63                N/A     8/ 7   2/13
64NM E OF VA BCH 0350   58 60  350/ 25/ 31 1009.1R   8/ 6
DUCK PIER NC     0300   58 66  340/ 23/ 26 1010.7R
44100 DUCK FRF   0324      63                N/A     8/ 7
44056 DUCK FRF   0311      66                N/A     5/ 6
OREGON INLET NC  0300   59 73  340/ 14/ 20 1011.5R
HATTERAS NC      0300   65 74  320/ 20/ 23 1010.9R
DIAMOND SHLS NC  0350   67 76  330/ 25/ 31 1010.7R   5/ 5   2/ 9
CAPE LOOKOUT NC  0400   63     350/ 16/ 19 1011.8R
$$



USA.gov is the U.S. government's official web portal to all federal, state and local government web resources and services.